Weather reports worldwide

Advertisment
Luqa, Malta (16597): temperature & dewpoint: 15.02.2019 21:00:00 - 21.02.2019 21:00:00 (CET)Luqa, Malta (16597): wind speed: 15.02.2019 21:00:00 - 21.02.2019 21:00:00 (CET)Luqa, Malta (16597): wind direction: 15.02.2019 21:00:00 - 21.02.2019 21:00:00 (CET)Luqa, Malta (16597): reduced air pressure: 15.02.2019 21:00:00 - 21.02.2019 21:00:00 (CET)Luqa, Malta (16597): visibility: 15.02.2019 21:00:00 - 21.02.2019 21:00:00 (CET)
Date & Time tt [°C] td [°C] ff [km/h] ff [kn] dd ppp [hPa] vv [km]
21.02.2019 21:00:00 10,0 8,0 5 3 WNW - 10
21.02.2019 20:00:00 10,0 8,0 5 3 WNW - 10
21.02.2019 19:00:00 11,3 8,2 4 2 WNW 1027,1 10
21.02.2019 18:00:00 12,0 8,0 4 2 N - 10
21.02.2019 17:00:00 13,0 9,0 8 4 ENE - 10
21.02.2019 16:00:00 13,9 8,8 8 4 NE 1026,7 10
21.02.2019 15:00:00 14,0 9,0 9 5 E - 10
21.02.2019 14:00:00 14,0 9,0 13 7 NNE - 10
21.02.2019 13:00:00 15,2 9,4 5 3 E 1027,3 10
21.02.2019 12:00:00 15,0 9,0 15 8 NE - 10
21.02.2019 11:00:00 15,0 10,0 13 7 ENE - 10
21.02.2019 10:00:00 14,2 10,2 11 6 NE 1027,4 10
21.02.2019 09:00:00 13,0 11,0 5 3 ENE - 10
21.02.2019 08:00:00 11,0 11,0 0 0 N - 10
21.02.2019 07:00:00 8,1 7,7 0 0 N 1026,3 10
21.02.2019 06:00:00 9,0 8,0 2 1 - - 10
21.02.2019 05:00:00 9,0 8,0 2 1 - - 10
21.02.2019 04:00:00 8,7 8,0 4 2 N 1025,3 10
21.02.2019 03:00:00 8,0 8,0 9 5 NNE - 10
21.02.2019 02:00:00 9,0 8,0 2 1 N - 10
21.02.2019 01:00:00 9,2 7,8 2 1 - 1025,6 10
21.02.2019 00:00:00 9,0 7,0 2 1 - - 10
20.02.2019 23:00:00 9,0 7,0 4 2 - - 10
20.02.2019 22:00:00 9,5 7,5 5 3 N 1025,1 10
20.02.2019 21:00:00 10,0 8,0 4 2 NE - 10
20.02.2019 20:00:00 11,0 7,0 2 1 - - 10
20.02.2019 19:00:00 12,5 8,2 4 2 E 1024,2 10
20.02.2019 18:00:00 13,0 8,0 5 3 SE - 10
20.02.2019 17:00:00 15,0 8,0 13 7 SSE - 10
20.02.2019 16:00:00 15,1 8,2 11 6 SE 1023,3 10
20.02.2019 15:00:00 16,0 9,0 11 6 SSE - 10
20.02.2019 14:00:00 15,0 9,0 13 7 SE - 10
20.02.2019 13:00:00 14,9 9,3 9 5 SE 1023,5 10
20.02.2019 12:00:00 14,0 9,0 13 7 SE - 10
20.02.2019 11:00:00 14,0 9,0 11 6 SE - 10
20.02.2019 10:00:00 14,9 10,1 11 6 E 1024,0 10
20.02.2019 09:00:00 13,0 11,0 5 3 ENE - 10
20.02.2019 08:00:00 11,0 10,0 5 3 NE - 10
20.02.2019 07:00:00 10,0 8,5 5 3 NE 1023,1 10
20.02.2019 06:00:00 9,0 8,0 2 1 NNE - 10
20.02.2019 05:00:00 9,0 7,0 2 1 - - 10
20.02.2019 04:00:00 7,4 6,0 2 1 SSW 1022,7 10
20.02.2019 03:00:00 9,0 7,0 2 1 N - 10
20.02.2019 02:00:00 9,0 7,0 0 0 N - 10
20.02.2019 01:00:00 8,7 6,3 2 1 - 1023,4 10
20.02.2019 00:00:00 9,0 7,0 2 1 WNW - 10
19.02.2019 23:00:00 9,0 6,0 2 1 S - 10
19.02.2019 22:00:00 9,5 6,4 0 0 N 1023,7 10
19.02.2019 21:00:00 10,0 7,0 5 3 S - 10
19.02.2019 20:00:00 10,0 6,0 2 1 S - 10
19.02.2019 19:00:00 12,3 6,6 4 2 S 1023,1 10
19.02.2019 18:00:00 13,0 6,0 5 3 SSW - 10
19.02.2019 17:00:00 15,0 6,0 5 3 SW - 10
19.02.2019 16:00:00 15,3 6,0 4 2 - 1022,8 10
19.02.2019 15:00:00 16,0 7,0 9 5 SSW - 10
19.02.2019 14:00:00 16,0 7,0 9 5 S - 10
19.02.2019 13:00:00 15,6 7,5 13 7 SW 1024,0 10
19.02.2019 12:00:00 15,0 8,0 13 7 W - 10
19.02.2019 11:00:00 15,0 8,0 13 7 SW - 10
19.02.2019 10:00:00 13,8 8,4 11 6 S 1024,8 10
19.02.2019 09:00:00 14,0 9,0 5 3 SSE - 10
19.02.2019 08:00:00 11,0 9,0 2 1 SE - 10
19.02.2019 07:00:00 7,4 6,0 2 1 NNE 1024,2 10
19.02.2019 06:00:00 7,0 6,0 2 1 N - 10
19.02.2019 05:00:00 8,0 6,0 2 1 NNW - 10
19.02.2019 04:00:00 8,1 5,7 2 1 WNW 1024,2 10
19.02.2019 03:00:00 8,0 5,0 5 3 W - 10
19.02.2019 02:00:00 9,0 6,0 8 4 W - 10
19.02.2019 01:00:00 9,0 6,2 8 4 WSW 1025,5 10
19.02.2019 00:00:00 9,0 6,0 8 4 W - 10
18.02.2019 23:00:00 9,0 5,0 8 4 W - 10
18.02.2019 22:00:00 8,5 4,4 8 4 W 1025,9 10
18.02.2019 21:00:00 9,0 5,0 9 5 W - 10
18.02.2019 20:00:00 10,0 5,0 9 5 W - 10
18.02.2019 19:00:00 10,5 5,0 8 4 W 1025,4 10
18.02.2019 18:00:00 11,0 5,0 5 3 W - 10
18.02.2019 17:00:00 13,0 6,0 8 4 W - 10
18.02.2019 16:00:00 13,8 5,6 15 8 NW 1025,5 10
18.02.2019 15:00:00 14,0 6,0 13 7 W - 10
18.02.2019 14:00:00 15,0 6,0 16 9 NW - 10
18.02.2019 13:00:00 14,9 5,7 11 6 W 1026,6 10
18.02.2019 12:00:00 15,0 6,0 11 6 W - 10
18.02.2019 11:00:00 15,0 7,0 13 7 W - 10
18.02.2019 10:00:00 13,6 7,2 13 7 W 1028,0 10
18.02.2019 09:00:00 13,0 7,0 9 5 WNW - 10
18.02.2019 08:00:00 11,0 7,0 9 5 WNW - 10
18.02.2019 07:00:00 7,0 4,8 9 5 W 1027,8 10
18.02.2019 06:00:00 7,0 5,0 11 6 WNW - 10
18.02.2019 05:00:00 7,0 5,0 9 5 WNW - 10
18.02.2019 04:00:00 7,1 5,1 8 4 WNW 1027,6 10
18.02.2019 03:00:00 7,0 5,0 8 4 WNW - 10
18.02.2019 02:00:00 7,0 5,0 9 5 WNW - 10
18.02.2019 01:00:00 8,1 5,5 5 3 WNW 1028,5 10
18.02.2019 00:00:00 8,0 5,0 8 4 WNW - 10
17.02.2019 23:00:00 7,0 4,0 8 4 WNW - 10
17.02.2019 22:00:00 8,0 4,3 5 3 WNW 1029,3 10
17.02.2019 21:00:00 8,0 5,0 8 4 NW - 10
17.02.2019 20:00:00 9,0 4,0 8 4 WNW - 10
17.02.2019 19:00:00 10,3 5,6 4 2 WNW 1029,0 10
17.02.2019 18:00:00 11,0 6,0 2 1 - - 10
17.02.2019 17:00:00 13,0 6,0 4 2 - - 10
17.02.2019 16:00:00 13,9 6,5 4 2 - 1028,7 10
17.02.2019 15:00:00 13,0 6,0 5 3 SW - 10
17.02.2019 14:00:00 14,0 6,0 4 2 - - 10
17.02.2019 13:00:00 13,2 5,8 5 3 E 1029,7 10
17.02.2019 12:00:00 14,0 6,0 4 2 - - 10
17.02.2019 11:00:00 15,0 6,0 5 3 NNW - 10
17.02.2019 10:00:00 13,4 6,2 8 4 N 1030,4 10
17.02.2019 09:00:00 13,0 6,0 5 3 N - 10
17.02.2019 08:00:00 10,0 6,0 5 3 NNW - 10
17.02.2019 07:00:00 7,9 5,0 9 5 NW 1029,8 10
17.02.2019 06:00:00 7,0 5,0 8 4 NW - 10
17.02.2019 05:00:00 7,0 4,0 5 3 NNE - 10
17.02.2019 04:00:00 7,6 5,2 4 2 NW 1028,7 10
17.02.2019 03:00:00 7,0 5,0 4 2 NNW - 10
17.02.2019 02:00:00 9,0 5,0 4 2 NNE - 10
17.02.2019 01:00:00 9,4 5,6 4 2 - 1029,7 10
17.02.2019 00:00:00 10,0 4,0 8 4 NNE - 10
16.02.2019 23:00:00 11,0 4,0 11 6 NNE - 10
16.02.2019 22:00:00 11,1 4,3 15 8 NE 1029,6 10
16.02.2019 21:00:00 11,0 3,0 13 7 ENE - 10
16.02.2019 20:00:00 11,0 2,0 15 8 ENE - 10
16.02.2019 19:00:00 11,2 2,1 15 8 ENE 1028,6 10
16.02.2019 18:00:00 11,0 2,0 21 11 ENE - 10
16.02.2019 17:00:00 12,0 3,0 26 14 NE - 10
16.02.2019 16:00:00 12,1 4,1 28 15 NE 1027,4 10
16.02.2019 15:00:00 12,0 4,0 31 17 NE - 10
16.02.2019 14:00:00 12,0 4,0 35 19 ENE - 10
16.02.2019 13:00:00 12,0 5,9 29 16 NNE 1027,4 10
16.02.2019 12:00:00 12,0 5,0 28 15 ENE - 10
16.02.2019 11:00:00 12,0 5,0 24 13 NE - 10
16.02.2019 10:00:00 9,5 5,2 15 8 ENE 1026,6 10
16.02.2019 09:00:00 11,0 4,0 28 15 ENE - 10
16.02.2019 08:00:00 10,0 4,0 26 14 ENE - 10
16.02.2019 07:00:00 8,0 4,5 15 8 NE 1024,5 10
16.02.2019 06:00:00 9,0 4,0 13 7 ENE - 8
16.02.2019 05:00:00 10,0 4,0 34 18 NNE - 10
16.02.2019 04:00:00 8,3 4,7 9 5 NE 1023,3 10
16.02.2019 03:00:00 9,0 4,0 13 7 ENE - 10
16.02.2019 02:00:00 8,0 5,0 21 11 ENE - 10
16.02.2019 01:00:00 8,9 6,1 24 13 ENE 1023,8 10
16.02.2019 00:00:00 9,0 6,0 37 20 ENE - 10
15.02.2019 23:00:00 10,0 8,0 34 18 E - 10
15.02.2019 22:00:00 10,4 8,0 9 5 E 1022,4 10
15.02.2019 21:00:00 10,0 7,0 5 3 S - 10

tt = temperature
td = dewpoint
ff = wind speed
dd = wind direction
ppp = reduced air pressure
vv = visibility

Next stations